Location: Prague
(50.0830°N, 14.4670°E)
Time: 04:36:28
(UTC+02:00)

FO-29 - Pass Details

Date: 03 April 2023
Orbit: 799 x 1322 km, 98.5° (Epoch: 29 May)

Event Time Altitude Azimuth Distance (km) Brightness Sun altitude
Rises 05:50:02 0° 15° (NNE) 4,291 13.4 -7.9°
Reaches altitude 10° 05:52:53 10° 18° (NNE) 3,279 12.8 -7.5°
Maximum altitude 06:00:26 66° 100° (E) 1,294 10.5 -6.3°
Drops below altitude 10° 06:07:10 10° 183° (S) 2,936 11.8 -5.3°
Sets 06:09:36 0° 186° (S) 3,817 12.4 -4.9°
